Regional Weather Roundup
Issued by NWS San Diego, CA

Home | Current Version | Previous Version | Text Only | Print | Product List | Glossary On
Versions: 1 2 3 4 5 6 7 8 9 10 11 12 13 14 15 16 17 18 19 20 21 22 23 24 25 26 27 28 29 30 31 32 33 34 35 36 37 38 39 40 41 42 43 44 45 46 47 48 49 50
573
ASUS46 KSGX 191411
RWRSGX

SAN DIEGO HOURLY WEATHER ROUNDUP
NATIONAL WEATHER SERVICE SAN DIEGO CA
700 AM PDT THU OCT 19 2017

NOTE: "FAIR" INDICATES FEW OR NO CLOUDS BELOW 12,000 FEET WITH NO
SIGNIFICANT WEATHER AND/OR OBSTRUCTIONS TO VISIBILITY.

CAZ042-043-060-061-PZZ750-775-191500-

GREATER SAN DIEGO AREA

CITY           SKY/WX    TMP DP  RH WIND       PRES   REMARKS
SAN DIEGO AP   MOCLDY    67  60  78 E8        29.92S
NATIONAL CITY    N/A     65  60  83 E3        29.93F
CHULA VISTA      N/A     64  60  88 CALM      29.83S
IMPERIAL BEACH MOCLDY    62  58  86 E5        29.91S
BROWN FIELD    PTCLDY    61  58  90 SE3       29.91F FOG
MIRAMAR MCAS   MOCLDY    65  59  81 SE5       29.91S
MONTGOMERY FLD PTCLDY    66  58  75 E5        29.91F
GILLESPIE FLD  PTCLDY    63  57  82 VRB6      29.91S

$$

NORTH SAN DIEGO COUNTY

CITY           SKY/WX    TMP DP  RH WIND       PRES   REMARKS
CAMP PENDLETON CLOUDY    65  60  84 E6        29.90S
OCEANSIDE AP   CLOUDY    68  60  75 E5        29.89F
OCEANSIDE HBR    N/A     67  61  81 CALM      29.92S
VISTA            N/A     65  59  82 CALM      29.88S
CARLSBAD       CLOUDY    67  60  78 E6        29.90S
DEL MAR          N/A     63  60  89 CALM      29.91F
LA JOLLA SCRIP   N/A     64  61  88 E3        29.89F
FALLBROOK        N/A     62  62 100 CALM      29.92S
ESCONDIDO        N/A     62  58  86 SE3       29.91F
SAN MARCOS       N/A     64  59  83 CALM      29.92S
POWAY            N/A     63  58  83 CALM      29.92S

$$

EAST SAN DIEGO COUNTY

CITY           SKY/WX    TMP DP  RH WIND       PRES   REMARKS
RAMONA         FOG       55  55 100 E3        29.93F VSB 1/4
SANTEE LAKES     N/A     63  59  87 CALM      29.89F
LA MESA          N/A     62  58  88 CALM      29.83F
JAMUL            N/A     56  54  92 CALM      29.90F
DESCANSO N       N/A     52  28  39 NE5       29.83S
CAMPO            N/A     45  35  68 NE6       29.94F

$$

ORANGE COUNTY AND THE LOS ANGELES BASIN

CITY           SKY/WX    TMP DP  RH WIND       PRES   REMARKS
JOHN WAYNE AP  MOCLDY    67  61  81 E6        29.89S
LAGUNA BEACH     N/A     65  61  87 N10       29.84S
LAKE FOREST FR   N/A     61  56  83 CALM      29.79S
HUNTINGTON BCH   N/A     64  63  95 CALM      29.90S
LOS ALAMITOS   MOCLDY    66  61  84 E5        29.89S
FULLERTON      CLOUDY    68  61  78 E6        29.89S
LONG BEACH     CLOUDY    67  62  84 E6        29.89S
L.A. AP        CLOUDY    67  62  84 E7        29.90R
L.A. DOWNTOWN  CLOUDY    69  61  75 VRB3      29.89S

$$

THE INLAND EMPIRE

CITY           SKY/WX    TMP DP  RH WIND       PRES   REMARKS
CORONA         MOCLDY    54  52  94 CALM      29.92S FOG
CHINO          CLEAR     58  55  90 CALM      29.93S FOG
ONTARIO        PTCLDY    60  57  89 CALM      29.91S FOG
RIVERSIDE AP   CLEAR     59  54  83 SE3       29.92S
MORENO VALLEY    N/A     58  54  86 CALM      28.04S
MARCH ARB      PTCLDY    54  48  82 CALM      29.93S
HORSETHIEF CYN   N/A     58  54  86 CALM      29.89S
PERRIS           N/A     57  56  96 S3          N/A
HEMET EAST       N/A     58  41  52 CALM      29.92S
FRENCH VALLEY  CLOUDY    59  59 100 SE3       29.93F
TEMECULA         N/A     60  58  96 CALM      29.97S

$$

SAN BERNARDINO AND RIVERSIDE COUNTY MOUNTAINS

CITY           SKY/WX    TMP DP  RH WIND       PRES   REMARKS
BIG BEAR AP    CLEAR     34  30  86 CALM      30.13S
ANGELUS OAKS     N/A     53  36  52 CALM      29.77R

$$

SOUTHERN DESERT INCLUDING THE COACHELLA VALLEY

CITY           SKY/WX    TMP DP  RH WIND       PRES   REMARKS
PALM SPRINGS   CLEAR     68  51  54 CALM      29.80R
THOUSAND PALMS   N/A     78  49  35 NW14      29.74R
PALM DESERT      N/A     65  53  63 CALM        N/A
THERMAL        CLEAR     64  51  62 SE5       29.75R
BLYTHE           N/A     70  38  31 SE3       29.79R
IMPERIAL AP    CLEAR     75  33  21 W8        29.76S
EL CENTRO NAS  PTCLDY    77  22  13 W7        29.79R
YUMA AZ        PTCLDY    68  44  42 S3        29.78S
MEXICALI       CLEAR     64  45  48 SE5       29.78S

$$

UPPER DESERT

CITY           SKY/WX    TMP DP  RH WIND       PRES   REMARKS
VICTORVILLE AP CLEAR     52  30  43 CALM      29.94S
HESPERIA         N/A     54  42  63 CALM      29.96R
PALMDALE       CLEAR     58  30  34 SW7       29.94S
LANCASTER      CLEAR     59  24  26 W7        29.93S
EDWARDS AFB    PTCLDY    56  25  30 SW12      29.89F
DAGGETT        CLEAR     59  22  24 W12       29.89S
29 PALMS N     CLEAR     66  28  24 NW9       29.95S
NEEDLES        CLEAR     65  17  15 CALM      29.82S

$$

REGIONAL REPORTS

CITY           SKY/WX    TMP DP  RH WIND       PRES   REMARKS
SANTA BARBARA  CLEAR     54  49  83 CALM      29.90R
SANDBERG       CLEAR     57  29  34 N18G28    30.04R
LAS VEGAS NV   MOCLDY    70  21  15 S3        29.88S
PHOENIX AZ     MOCLDY    75  44  33 E8        29.81S
TIJUANA        PTCLDY    61  59  94 CALM      29.94S
ENSENADA NW      N/A     64  32  30 CALM      29.89S

$$

OFFSHORE ISLANDS

CITY           SKY/WX    TMP DP  RH WIND       PRES   REMARKS
CATALINA ARPT  PTCLDY    59  59 100 SW5       29.94R FOG
SAN CLEMENTE I MOCLDY    63  59  88 W12       29.92
SAN NICOLAS IS MOCLDY    59  55  87 W25G33    29.89F

$$

MARINE AND OFFSHORE BUOY REPORTS

STATION/POSITION SKY/WX   TEMP    WIND        PRES    VSBY  SWELL
                          AIR SEA DIR/SP/G                  HT/PER/DIR
                          (F)     (DEG/KT/KT) (MB)    (MI)  (FT/S/D)
TANNER BANKS               63 64  320/ 14/ 16 1013.3R         7/340/ 7
S CLEMENTE BASIN           67 70  290/ 12/ 14 1012.6R         5/180/15
SAN NICOLAS IS.               62                N/A           5/290/12
SO. S. ROSA ISLA           59 61  300/ 23/ 27 1012.3R         3/310/11
W. S. BARBARA CH           56 59  310/ 23/ 29 1012.8R         5/300/11
M. S. BARBARA CH           65 66  340/  4/  6 1013.0R         5/260/ 6
S. MONICA BASIN               69  350/  6/  8 1012.0R         5/220/15
S PEDRO CHANNEL               69                N/A           2/190/13
CMP PENDLETON NS              69                N/A           3/210/15
OCEANSIDE OFFSHR              70                N/A           3/190/15
TORREY PINES OTR              69                N/A           3/200/14
SAN DIEGO BAY                 74              1013.1F
POINT LOMA SOUTH              70                N/A           3/200/15

$$





USA.gov is the U.S. government's official web portal to all federal, state and local government web resources and services.